EUTELSAT 53A

Last updated on Mon Sep 07 2026 00:02:59 GMT+0000 (Coordinated Universal Time)

1 40277U 14064A 26249.60230838 .00000000 00000+0 00000+0 0 9996 2 40277 0.0249 134.4998 0001747 59.6751 61.3471 1.00271588 42388
UTC large
Height (km)
Speed (km/s)
/
Latitude / Longitude
Inclination (degrees)
Orbital Period (minutes)
Azimuth
Elevation
Range (km)
Doppler Factor

Next 0 passes for location: London (51.5072 / 0.1276)

No passes found over London.
EUTELSAT 53A